Wind_Speed
9 10 11 13 14 15 16 17 17 19 21 21 21 22 22 20 20 20 20 20 20 21 22 22 22 21 21 20 20 20 19 19 20 22 22 22 21 22 22 23 23 24 25 26
8 10 11 12 13 14 15 16 17 18 19 20 20 20 20 20 19 19 19 20 20 20 21 20 20 20 19 19 19 19 19 20 20 21 22 21 21 22 22 23 24 24 25 26
8 8 10 11 12 13 14 16 17 18 18 19 20 19 19 19 20 19 19 19 20 21 21 19 19 20 20 20 20 20 20 21 21 21 20 20 21 22 23 23 24 24 25 26
7 8 9 11 12 14 14 15 17 18 18 19 19 20 18 19 19 19 19 20 20 20 20 20 19 19 20 20 21 21 21 21 21 21 20 20 21 21 23 23 24 24 25 26
8 8 9 10 12 13 14 14 15 17 18 18 18 19 17 18 18 19 19 20 19 19 20 20 19 20 20 21 22 22 21 21 22 22 21 21 21 22 23 23 23 23 24 25
8 9 9 10 12 13 14 15 15 16 18 18 17 18 17 17 17 18 19 19 19 19 19 18 19 19 20 22 22 22 22 22 22 22 21 21 22 22 23 22 22 23 24 25
9 10 10 10 12 13 13 14 15 15 16 16 17 18 16 16 17 17 17 17 18 18 18 18 19 20 21 21 21 22 21 22 22 21 20 21 22 22 23 22 22 23 23 24
11 11 10 11 12 13 13 13 14 16 16 15 15 16 15 15 15 16 17 18 18 18 18 19 19 20 21 21 21 21 22 22 22 21 21 22 21 21 22 22 22 23 23 24
12 12 12 12 11 12 12 13 14 16 17 17 16 15 13 13 15 16 17 18 19 19 19 19 18 19 20 21 21 22 22 21 20 20 21 21 21 21 22 22 22 23 24 25
13 14 13 14 13 13 13 14 15 17 18 18 16 15 14 14 16 16 17 18 19 19 19 20 19 20 20 20 20 21 21 20 20 21 21 22 21 21 21 21 22 23 23 24
14 15 14 14 14 14 14 15 16 17 18 19 19 16 15 16 16 17 18 19 19 20 21 20 19 19 19 19 19 19 19 18 19 20 21 21 20 21 21 21 22 22 23 23
16 16 16 15 15 14 13 14 16 17 18 19 19 18 17 17 17 17 19 20 20 21 21 20 19 19 19 18 18 18 18 18 18 19 19 19 19 19 20 21 22 22 22 23
18 18 17 16 16 16 16 16 17 17 18 19 20 19 19 18 18 19 20 20 20 20 20 20 19 18 17 17 16 17 17 17 17 17 18 19 20 19 20 21 21 21 21 22
19 19 19 19 18 19 18 18 19 19 20 20 20 20 19 18 18 19 20 19 18 18 18 18 17 17 16 16 16 17 17 17 17 18 17 17 19 20 20 20 20 21 21 22
20 20 20 20 20 20 20 20 20 21 20 20 20 20 19 18 18 18 18 17 17 16 16 16 16 16 16 16 16 17 17 16 16 16 16 18 18 18 19 19 19 20 21 21
20 20 20 20 20 21 21 21 21 21 20 19 19 18 18 18 17 17 17 17 16 16 15 15 14 15 16 16 16 16 16 15 15 15 16 17 18 18 18 19 19 20 21 21
19 19 19 18 19 20 20 18 18 18 18 18 18 18 18 18 17 17 16 17 17 16 15 15 15 15 15 15 15 15 15 15 15 16 16 18 17 17 19 19 20 20 20 21
18 19 18 18 18 19 16 15 15 15 16 16 17 17 17 18 17 17 17 17 17 16 16 16 16 16 16 16 15 15 15 15 15 16 16 17 17 18 19 19 19 19 19 19
17 17 18 18 18 17 15 15 15 15 15 16 17 17 17 16 16 16 16 16 16 16 16 16 16 15 15 14 14 14 15 14 15 15 16 16 16 17 17 17 18 18 19 20
16 17 17 17 17 17 16 16 15 15 15 16 17 17 16 15 15 15 15 15 15 15 15 15 15 14 14 13 13 13 13 14 14 14 15 16 16 16 17 19 19 18 19 20
16 16 16 16 16 16 15 16 16 16 16 16 17 16 15 14 15 15 14 14 13 13 13 13 13 12 12 12 12 12 13 13 13 14 15 14 15 16 17 18 19 19 19 18
16 16 16 16 16 15 16 16 16 16 16 16 15 14 14 14 14 14 13 12 12 12 12 11 11 10 10 11 11 12 12 12 12 12 13 14 15 16 17 18 18 18 17 18
16 15 15 15 14 15 15 15 16 17 16 15 14 14 14 14 14 13 12 12 12 11 10 10 9 10 10 11 11 11 11 10 11 12 13 13 14 16 16 17 17 17 17 18
16 15 15 15 14 15 14 15 16 15 14 14 14 14 13 14 13 12 11 10 10 10 9 9 9 10 10 10 10 10 9 10 10 11 12 13 14 15 15 15 15 16 17 17
15 15 15 14 14 14 14 14 14 13 13 13 13 13 12 12 11 10 9 8 8 8 8 8 8 8 8 8 9 9 9 9 9 10 11 12 13 14 15 16 16 17 17 18
14 14 14 13 12 13 13 13 13 12 11 11 11 11 9 9 8 7 7 7 6 6 6 7 6 7 7 8 8 7 8 8 9 10 11 12 13 14 15 15 16 16 18 19
Wind_Direction
221 225 229 230 234 239 245 247 248 249 249 251 254 258 260 264 266 267 271 270 271 272 274 278 279 277 276 279 281 282 283 285 287 288 290 290 287 289 293 294 295 297 299 300
226 232 236 235 237 242 249 250 251 252 252 252 255 259 261 265 268 270 271 272 275 276 276 279 278 278 277 280 284 283 284 289 289 293 295 293 289 292 294 296 297 298 300 301
234 238 244 244 244 246 249 251 254 255 255 255 257 258 262 266 267 269 271 273 276 277 276 275 277 276 279 282 285 286 285 287 289 292 292 294 295 295 296 296 298 299 300 301
247 251 255 251 249 253 253 255 257 258 260 260 263 264 262 267 269 273 275 276 277 275 272 274 277 278 280 282 285 287 285 286 290 293 295 296 298 296 296 297 300 301 302 303
256 255 258 258 257 260 260 262 260 260 261 263 267 270 268 269 272 274 274 275 275 272 273 277 279 280 282 282 285 286 288 290 289 290 291 293 295 297 299 299 303 305 305 306
264 261 260 261 264 266 267 266 267 268 267 269 272 273 273 273 274 274 273 276 276 275 277 278 279 281 285 284 283 287 288 289 287 285 286 291 293 298 301 301 303 305 306 308
268 268 270 271 268 270 273 273 276 274 273 274 277 279 281 278 275 276 277 279 278 279 279 279 280 280 283 282 281 285 287 288 285 284 284 288 294 298 300 301 303 305 307 309
273 273 270 270 275 275 276 278 279 283 283 282 282 286 291 285 281 280 281 282 280 282 281 281 282 281 282 282 282 284 287 288 287 285 287 290 293 298 301 303 304 306 308 309
277 278 280 279 280 277 278 279 282 285 286 288 291 293 292 288 285 285 286 286 284 285 286 284 282 283 281 282 283 286 288 289 288 288 290 292 295 299 302 303 304 307 309 310
285 284 282 280 282 281 280 283 285 286 290 291 293 295 297 293 291 288 289 287 285 283 285 284 282 284 283 282 283 285 287 287 287 289 292 295 296 297 300 302 305 307 309 311
284 283 280 276 279 283 281 281 282 284 287 291 294 296 301 297 295 290 290 288 285 285 286 284 283 283 284 283 283 284 286 285 287 290 292 294 294 295 298 302 306 307 308 311
283 281 278 277 280 281 281 281 282 285 287 287 291 296 298 297 294 290 291 291 288 287 284 282 281 283 284 283 284 283 285 286 290 293 293 295 294 296 298 303 307 308 310 311
281 279 278 277 276 276 278 279 279 282 285 287 290 294 296 293 291 289 289 290 288 287 285 281 281 283 282 281 282 284 286 285 289 292 295 297 299 300 302 304 307 309 311 313
278 276 276 278 277 277 278 279 280 283 286 289 290 292 292 289 292 292 291 291 291 289 289 287 283 283 278 280 280 283 288 285 287 291 295 299 303 306 307 308 309 311 312 314
275 274 276 277 278 278 278 279 280 282 285 289 291 291 291 291 294 295 293 294 294 294 295 293 286 283 281 281 282 282 287 287 288 291 295 299 305 308 310 310 311 313 314 314
273 275 278 278 278 278 279 280 281 284 284 287 289 290 292 292 296 296 295 296 294 295 295 293 290 285 283 283 284 286 287 287 290 295 300 302 306 309 310 312 314 315 317 318
273 277 277 277 279 280 280 281 283 285 285 287 290 293 292 293 295 296 296 294 293 294 293 291 292 290 290 291 291 289 293 292 293 299 300 300 304 308 310 313 315 317 319 321
276 276 276 277 279 281 284 283 283 284 284 286 288 290 292 292 293 295 295 293 292 294 294 290 291 293 291 289 292 293 292 292 294 299 302 302 301 305 309 311 315 318 321 323
275 276 277 279 280 282 281 283 283 284 287 289 289 292 293 291 292 293 293 293 293 293 293 289 291 293 292 292 291 291 294 292 294 297 298 304 307 307 309 312 314 318 320 322
274 276 278 280 280 281 282 280 282 285 288 289 292 294 293 293 293 296 295 294 293 294 297 295 295 294 291 293 293 294 299 299 299 299 298 303 309 311 311 315 317 320 321 321
273 275 276 278 278 279 280 280 282 286 289 289 293 294 293 292 295 299 299 299 298 297 300 301 299 296 296 299 301 303 306 304 303 302 304 306 310 314 317 318 321 321 322 322
270 275 276 277 278 283 278 278 281 285 288 290 291 291 293 294 296 298 298 299 300 299 299 301 301 302 304 305 305 307 310 309 307 309 311 312 314 318 321 322 322 321 322 323
268 274 276 277 278 278 277 278 280 284 286 287 286 290 291 293 295 296 295 297 300 301 302 302 301 305 306 306 308 311 314 312 314 319 319 320 322 324 323 323 324 324 326 327
267 269 272 273 273 272 273 277 277 278 280 282 285 291 291 295 295 294 296 299 299 301 305 307 305 306 306 308 311 313 316 317 320 323 324 326 330 332 330 331 330 331 332 332
264 266 271 274 271 267 271 275 275 275 276 279 284 288 290 292 296 297 299 302 301 302 306 309 309 311 313 316 317 316 317 321 325 327 330 332 335 335 335 335 334 336 337 337
263 264 268 269 266 268 271 273 273 272 272 276 279 282 285 290 297 300 302 304 306 306 308 310 309 311 317 321 322 321 325 327 330 333 337 339 339 338 338 338 338 340 342 341
Height
5818 5820 5820 5821 5823 5824 5826 5827 5828 5829 5830 5831 5832 5833 5834 5835 5835 5836 5837 5837 5837 5837 5837 5837 5836 5834 5834 5834 5833 5832 5831 5830 5829 5828 5826 5824 5823 5821 5820 5817 5815 5813 5810 5807
5818 5819 5819 5820 5822 5823 5824 5825 5826 5827 5827 5828 5829 5830 5831 5832 5832 5833 5833 5833 5833 5833 5833 5832 5831 5830 5829 5829 5828 5827 5826 5825 5824 5822 5820 5818 5817 5815 5814 5812 5809 5807 5804 5801
5817 5819 5819 5819 5820 5821 5822 5823 5823 5824 5824 5825 5825 5827 5828 5828 5829 5830 5830 5830 5829 5829 5828 5828 5827 5826 5825 5825 5823 5823 5821 5820 5818 5816 5814 5813 5812 5810 5808 5806 5803 5801 5798 5796
5817 5818 5818 5818 5818 5819 5819 5820 5820 5821 5821 5822 5823 5823 5825 5825 5826 5826 5826 5826 5825 5824 5824 5823 5822 5821 5820 5820 5819 5818 5816 5814 5813 5811 5809 5808 5807 5805 5803 5801 5798 5795 5792 5790
5816 5816 5816 5816 5817 5817 5817 5817 5818 5818 5818 5819 5819 5819 5822 5821 5822 5822 5821 5821 5820 5820 5819 5818 5817 5816 5815 5814 5814 5813 5811 5809 5808 5806 5805 5803 5802 5800 5798 5795 5792 5789 5786 5784
5815 5815 5815 5815 5815 5815 5815 5815 5815 5815 5815 5816 5816 5816 5817 5817 5817 5817 5817 5816 5815 5815 5814 5813 5812 5811 5810 5809 5808 5807 5805 5804 5802 5801 5799 5798 5796 5794 5792 5789 5787 5784 5781 5778
5814 5814 5814 5813 5813 5813 5813 5813 5813 5812 5812 5813 5813 5812 5814 5813 5813 5812 5812 5811 5810 5810 5809 5808 5807 5806 5805 5804 5803 5802 5800 5798 5797 5795 5794 5792 5790 5789 5787 5784 5782 5779 5776 5773
5811 5812 5812 5811 5811 5810 5810 5811 5811 5810 5809 5809 5810 5809 5810 5809 5809 5808 5807 5806 5806 5805 5804 5803 5802 5801 5800 5798 5797 5796 5794 5793 5791 5790 5788 5787 5786 5784 5781 5779 5777 5774 5771 5768
5809 5809 5809 5809 5808 5808 5807 5807 5808 5807 5806 5805 5806 5806 5806 5805 5804 5804 5803 5802 5801 5800 5799 5798 5797 5795 5794 5793 5791 5790 5789 5787 5786 5785 5783 5782 5780 5778 5776 5774 5771 5769 5766 5762
5806 5806 5806 5806 5806 5805 5805 5804 5804 5804 5802 5801 5802 5802 5802 5801 5800 5799 5798 5797 5796 5795 5794 5793 5792 5790 5789 5787 5786 5784 5783 5782 5781 5779 5778 5776 5775 5773 5771 5768 5766 5763 5760 5757
5802 5802 5803 5803 5803 5802 5802 5802 5801 5800 5799 5798 5797 5800 5799 5796 5795 5794 5793 5791 5790 5790 5789 5787 5786 5785 5784 5782 5781 5779 5778 5777 5776 5774 5773 5771 5769 5768 5766 5763 5761 5758 5755 5751
5798 5798 5798 5799 5799 5798 5798 5798 5798 5797 5796 5795 5793 5797 5794 5792 5790 5789 5788 5787 5785 5784 5783 5781 5780 5780 5778 5777 5776 5775 5774 5772 5771 5769 5768 5766 5765 5763 5760 5758 5756 5753 5749 5746
5794 5794 5794 5795 5797 5796 5794 5794 5793 5793 5792 5791 5789 5792 5788 5787 5785 5784 5782 5781 5780 5779 5777 5776 5775 5775 5774 5772 5771 5770 5769 5768 5767 5765 5763 5762 5760 5758 5756 5753 5751 5748 5744 5741
5789 5789 5790 5790 5790 5790 5790 5790 5789 5788 5787 5786 5785 5784 5784 5782 5780 5779 5777 5776 5774 5773 5772 5771 5770 5770 5769 5768 5767 5766 5765 5764 5762 5761 5759 5758 5756 5754 5751 5749 5746 5743 5739 5736
5784 5784 5784 5785 5785 5785 5785 5785 5785 5784 5783 5781 5781 5779 5778 5776 5775 5773 5772 5771 5769 5769 5767 5766 5765 5765 5765 5764 5763 5762 5760 5759 5758 5756 5755 5754 5752 5749 5747 5744 5741 5738 5734 5731
5779 5780 5779 5780 5780 5780 5779 5779 5779 5778 5778 5776 5775 5775 5773 5771 5770 5769 5768 5767 5766 5765 5764 5762 5761 5761 5760 5759 5758 5757 5756 5755 5754 5753 5751 5749 5747 5745 5743 5740 5737 5734 5730 5727
5775 5775 5775 5775 5776 5775 5775 5775 5774 5773 5773 5772 5771 5770 5768 5767 5766 5765 5764 5763 5762 5761 5760 5759 5758 5757 5756 5755 5754 5753 5752 5751 5750 5748 5747 5745 5743 5741 5739 5736 5733 5730 5726 5723
5771 5771 5770 5771 5772 5771 5773 5770 5770 5769 5769 5768 5767 5765 5764 5763 5762 5761 5760 5758 5757 5756 5756 5755 5753 5752 5751 5750 5749 5748 5747 5746 5745 5744 5743 5741 5739 5737 5735 5732 5729 5726 5722 5719
5766 5766 5766 5766 5766 5767 5768 5766 5766 5765 5765 5764 5763 5762 5760 5759 5758 5757 5756 5754 5753 5752 5751 5750 5749 5747 5747 5746 5745 5744 5743 5742 5741 5740 5739 5737 5735 5733 5730 5727 5725 5721 5718 5715
5762 5762 5762 5761 5761 5762 5764 5762 5761 5762 5761 5760 5758 5757 5756 5755 5754 5753 5751 5750 5748 5747 5746 5745 5744 5743 5742 5741 5741 5740 5739 5738 5737 5736 5734 5733 5731 5729 5726 5723 5720 5717 5714 5711
5757 5757 5757 5757 5757 5757 5759 5758 5758 5759 5758 5756 5755 5753 5752 5751 5750 5748 5746 5745 5744 5743 5742 5740 5739 5739 5738 5737 5736 5736 5735 5734 5733 5732 5730 5729 5727 5725 5722 5719 5717 5714 5711 5708
5752 5752 5753 5753 5753 5756 5754 5754 5755 5754 5753 5752 5750 5749 5748 5747 5746 5744 5742 5741 5740 5739 5738 5737 5736 5735 5734 5734 5733 5732 5731 5730 5730 5729 5727 5726 5724 5721 5719 5716 5714 5711 5708 5705
5747 5748 5748 5749 5751 5750 5749 5749 5749 5749 5748 5747 5746 5745 5744 5743 5742 5740 5739 5738 5737 5736 5735 5734 5733 5732 5732 5731 5730 5729 5728 5727 5727 5726 5725 5723 5721 5718 5716 5713 5710 5708 5705 5701
5743 5744 5744 5744 5746 5745 5745 5745 5745 5745 5744 5743 5742 5741 5740 5739 5738 5737 5736 5735 5734 5734 5733 5732 5731 5730 5729 5729 5728 5727 5726 5726 5725 5724 5722 5721 5718 5716 5713 5710 5708 5705 5702 5698
5739 5739 5740 5740 5741 5741 5742 5741 5741 5741 5740 5740 5739 5738 5737 5736 5735 5734 5734 5733 5732 5732 5731 5730 5729 5728 5727 5727 5726 5725 5725 5724 5723 5722 5720 5718 5716 5714 5711 5708 5705 5702 5699 5696
5735 5735 5735 5736 5737 5737 5738 5737 5737 5737 5737 5737 5736 5736 5735 5734 5733 5732 5732 5731 5730 5730 5729 5728 5728 5727 5726 5725 5724 5724 5723 5722 5721 5720 5718 5716 5714 5712 5709 5706 5703 5700 5697 5693